Wind_Speed
22 22 21 20 20 20 20 20 20 19 17 17 16 15 16 15 14 14 14 14 14 13 13 12 12 11 10 10 10 10 11 11 11 10 10 10 10 10 11 12 11 9 9 8 8 7 8 8 7 8 8 7 7 7 7 8 7 7 7 7 7 7 8 8 9 9 9 8 8 7 6 7 5 5 6 6 7 9 9 8 9 9 7 9 13
22 22 21 21 21 21 20 20 20 20 18 17 17 16 16 16 16 15 14 14 15 14 13 13 13 12 12 12 12 12 12 13 12 11 10 11 11 10 10 11 11 10 10 10 9 8 9 9 7 7 8 7 7 8 8 8 8 8 8 7 7 7 7 8 8 8 8 7 7 7 6 6 6 5 6 7 7 8 7 7 8 8 7 7 11
22 22 22 22 22 21 21 21 21 20 19 18 18 17 17 17 16 16 15 15 15 15 14 14 14 14 13 13 13 13 13 13 12 12 12 13 12 11 10 10 11 10 10 10 9 9 9 8 7 7 7 7 8 8 8 8 8 8 8 7 7 7 7 8 9 8 8 8 7 7 6 6 6 6 6 7 8 7 7 7 7 7 7 7 9
22 23 23 22 21 21 21 21 21 21 20 19 19 18 17 16 16 17 16 15 16 17 17 16 15 15 14 14 14 13 13 13 13 13 13 13 13 12 12 12 12 11 10 10 9 9 9 8 8 7 8 8 8 8 8 8 8 8 7 7 8 8 7 8 9 9 8 8 8 7 7 7 7 7 7 7 7 7 8 8 7 7 8 8 8
22 23 22 22 21 21 21 21 21 21 21 20 19 19 18 17 16 17 17 17 17 18 18 17 17 16 15 15 14 14 14 14 14 13 13 12 13 12 12 12 12 11 11 11 10 10 10 9 9 8 8 8 8 8 8 8 8 7 8 9 10 10 9 9 10 10 10 9 9 8 8 8 8 8 8 8 8 8 8 9 7 8 9 9 9
23 22 22 22 21 21 20 20 20 20 20 20 19 19 18 17 17 17 17 17 17 17 18 18 17 17 16 15 14 15 15 15 15 15 13 12 13 12 12 12 11 11 11 10 10 10 10 10 10 10 10 10 9 9 9 9 8 7 10 12 12 11 10 9 8 10 12 11 10 9 9 8 8 8 9 12 12 10 8 8 8 8 10 11 10
22 22 22 22 22 22 20 19 19 19 20 19 18 18 18 18 17 17 17 17 17 17 17 18 18 17 17 16 15 15 16 16 16 17 15 13 13 13 12 11 10 11 10 10 10 10 10 10 10 10 11 10 10 10 9 9 8 9 11 13 11 10 10 8 8 10 12 12 11 10 9 9 9 9 11 14 14 11 8 8 9 8 10 12 10
22 22 22 22 22 21 21 20 19 19 19 18 18 17 17 17 17 16 16 16 16 16 16 16 16 16 15 15 14 15 16 16 16 17 17 15 14 13 12 11 10 10 10 10 11 11 11 11 10 10 10 11 11 10 9 9 9 10 11 11 10 11 11 10 10 11 12 13 12 11 10 9 10 10 10 13 14 11 8 9 9 8 10 11 9
21 22 22 22 21 21 21 21 20 20 20 20 19 18 17 16 16 15 15 15 15 14 14 14 14 13 14 14 14 14 14 14 15 16 16 16 15 13 11 11 11 11 11 11 11 11 12 12 11 11 13 14 13 12 11 11 10 10 11 11 11 12 12 12 12 12 12 13 12 10 10 9 9 9 9 11 13 11 9 8 9 8 10 9 8
21 21 21 20 20 20 21 21 21 21 21 21 20 20 19 17 15 15 14 14 14 13 14 13 12 12 13 13 13 14 13 13 15 15 15 16 16 14 12 12 12 13 13 13 12 12 12 12 12 14 16 15 14 13 12 11 11 12 12 11 12 12 12 13 12 11 11 12 11 10 10 10 9 10 11 11 12 10 9 9 10 10 11 10 10
21 21 20 19 18 19 19 19 20 21 21 21 20 21 20 18 16 16 15 14 15 15 14 13 13 13 12 13 13 12 12 15 16 15 14 15 16 16 15 14 15 16 16 15 13 11 12 12 13 15 15 13 13 13 12 11 11 11 11 11 11 11 11 11 11 10 10 11 11 10 10 10 10 10 10 10 9 9 11 12 13 13 11 11 12
18 18 18 17 17 18 18 19 20 20 20 20 20 20 20 19 18 17 16 15 14 15 14 13 13 13 12 13 13 12 14 17 16 14 13 14 14 16 16 16 17 17 16 16 14 13 14 14 14 14 12 10 12 12 11 11 10 9 9 9 9 9 10 11 12 11 10 10 11 10 9 9 9 9 10 11 11 12 13 13 13 13 13 13 13
15 15 16 17 18 18 18 18 19 20 20 20 20 20 20 20 19 18 17 16 14 14 14 14 14 13 14 14 13 13 17 19 15 13 14 14 14 16 16 16 17 17 16 17 16 15 16 16 16 15 14 13 14 13 11 12 11 10 10 11 12 13 13 14 14 15 14 12 10 10 10 11 11 11 13 14 14 14 13 12 12 13 13 13 11
17 18 18 19 19 18 18 17 18 19 20 20 20 20 20 20 19 18 19 19 18 17 18 18 17 16 15 16 14 14 17 18 14 13 14 14 14 16 16 16 17 17 17 16 16 16 16 16 16 16 15 15 16 14 12 13 14 13 13 13 13 14 15 16 17 17 15 11 10 13 16 16 15 14 15 16 15 13 13 13 14 13 11 9 9
15 17 18 19 18 17 17 18 17 18 20 20 19 19 20 21 21 20 20 19 19 18 19 19 19 17 16 15 14 16 18 15 12 13 14 14 14 14 14 15 15 15 15 15 15 15 15 15 15 15 15 15 16 14 13 15 16 14 13 12 11 14 18 19 19 17 13 10 12 16 18 17 16 16 15 14 12 12 13 13 13 10 8 7 8
15 15 16 18 17 15 16 17 16 16 17 19 19 19 18 19 21 21 20 19 18 18 19 19 20 19 18 16 13 15 17 13 11 13 13 13 14 13 12 13 13 12 12 13 14 15 14 14 13 14 15 15 14 13 15 17 17 15 12 12 13 16 18 19 19 19 18 17 17 18 17 16 15 15 13 12 10 11 11 9 8 9 8 8 8
21 19 17 17 17 15 14 14 13 12 13 15 17 18 18 18 19 19 19 19 19 18 18 19 20 20 20 19 16 15 17 14 12 13 13 13 14 13 13 13 12 12 12 13 15 15 14 13 12 13 15 15 14 14 16 17 17 15 16 18 18 19 21 22 21 19 18 18 18 17 15 14 12 11 10 10 10 11 9 5 5 8 7 7 6
24 22 19 17 16 15 14 14 12 11 10 11 13 16 18 18 18 17 18 18 18 18 18 19 19 19 19 19 17 16 18 17 15 15 15 14 14 14 14 14 13 13 14 15 15 16 15 14 13 15 17 17 17 17 17 17 16 17 19 21 20 20 22 22 18 16 15 15 14 14 12 10 8 7 8 9 10 10 9 7 7 7 5 5 6
20 20 17 16 15 15 15 15 14 13 12 11 11 12 15 17 17 17 17 17 17 17 17 17 18 18 18 18 17 17 19 19 17 17 17 17 16 16 15 14 13 13 12 11 12 13 15 15 15 17 19 19 20 20 18 18 18 19 22 22 19 19 20 17 14 12 11 9 8 7 7 6 5 6 7 9 10 11 11 10 9 7 4 5 6
16 15 13 14 15 16 16 15 15 15 14 13 12 12 13 14 15 16 17 17 17 17 16 16 16 17 17 17 17 18 19 19 18 17 18 18 18 17 15 14 13 12 10 9 9 9 14 16 16 17 19 18 19 19 18 18 18 18 19 19 16 17 16 13 10 8 4 3 3 4 3 4 5 8 9 11 12 12 11 9 8 7 5 3 2
13 12 12 12 14 15 15 14 13 15 15 13 13 14 14 13 13 15 15 16 16 16 15 15 15 16 16 16 15 17 18 18 17 17 17 17 17 16 16 16 15 13 12 12 10 9 13 16 16 15 16 16 15 15 14 14 14 13 12 10 8 9 8 5 4 3 1 2 3 3 4 6 9 11 12 13 13 12 10 8 6 5 4 4 3
12 11 11 11 11 12 13 12 11 12 13 13 13 14 14 12 12 13 13 12 12 12 13 13 14 15 15 15 15 16 17 18 18 17 17 16 16 16 17 18 18 17 16 15 13 12 14 16 15 13 12 11 10 9 9 8 6 4 3 3 4 5 5 5 3 1 2 2 4 5 7 9 11 12 12 12 11 10 8 6 4 3 3 3 3
10 9 9 10 10 10 11 12 12 12 12 12 12 11 11 10 11 11 11 11 11 12 13 14 15 15 15 15 15 16 17 18 18 17 16 16 16 17 18 18 19 19 19 18 18 18 17 15 12 9 8 7 6 5 4 2 0 3 6 7 7 7 6 5 2 0 2 4 6 8 9 9 10 10 9 8 8 7 6 5 4 4 3 4 4
7 7 8 9 10 9 9 10 11 12 12 12 11 10 10 12 13 12 11 11 12 12 12 13 13 14 14 15 15 17 18 19 18 16 15 15 16 17 17 17 17 18 18 17 18 18 16 12 9 7 4 3 2 1 1 2 3 5 7 9 9 8 7 5 2 0 3 6 7 9 10 10 9 8 7 6 5 5 5 6 7 7 8 8 8
8 8 9 10 10 9 9 10 11 11 12 12 12 12 13 13 13 11 10 9 9 9 9 9 8 9 11 14 16 17 17 17 17 15 14 14 13 13 14 14 14 16 16 15 15 15 13 10 8 5 3 1 1 3 4 5 6 6 7 8 8 7 5 3 1 2 5 8 9 10 10 9 7 6 5 5 4 5 6 7 8 9 11 11 12
7 8 8 8 8 9 10 11 10 10 11 10 9 9 9 9 9 8 7 7 7 6 6 5 5 6 8 11 13 15 15 14 14 14 13 12 10 9 10 10 11 12 13 13 12 10 8 7 6 4 3 3 4 5 6 7 8 7 7 7 6 4 2 0 2 5 6 7 8 8 7 6 5 4 4 4 5 6 6 6 6 9 11 12 13
9 9 8 8 8 8 8 9 9 9 9 8 7 7 7 7 7 6 6 5 5 5 6 5 5 6 7 8 10 10 11 10 10 9 9 8 7 5 6 8 7 7 9 9 8 6 5 4 4 4 5 6 7 7 8 8 8 7 6 6 5 2 1 2 4 5 5 4 3 3 3 3 4 4 6 6 6 7 8 7 8 9 12 13 12
17 17 15 14 13 12 10 10 9 10 9 8 8 9 10 11 11 11 10 9 10 11 11 9 8 8 8 8 7 8 8 8 7 6 5 5 6 5 3 3 3 2 3 4 4 5 5 6 7 7 8 9 9 9 8 8 8 7 6 4 2 1 2 3 4 4 3 2 2 2 3 3 3 4 4 5 8 10 10 10 11 12 13 13 12
20 19 17 16 16 16 15 14 13 12 12 12 12 12 12 13 13 13 13 12 13 14 13 11 11 11 11 10 9 8 7 7 6 5 3 2 4 3 2 1 1 1 2 4 6 7 8 8 9 10 10 10 10 9 8 8 7 6 5 3 2 2 2 2 2 2 2 2 2 3 3 2 2 3 3 5 9 13 13 13 14 14 14 14 12
17 16 16 16 17 17 17 17 17 16 15 14 14 15 16 16 16 15 15 14 13 13 12 11 10 10 9 8 8 7 6 4 3 3 1 2 3 3 3 3 3 4 5 6 7 8 9 10 10 11 11 10 9 9 7 7 6 4 3 3 3 3 3 3 2 2 1 2 1 1 1 1 3 4 4 5 8 11 13 16 17 16 16 15 13
14 14 14 15 16 16 17 17 16 16 16 15 14 15 16 16 16 15 14 13 11 10 10 9 8 7 6 5 4 4 2 1 1 2 3 4 4 4 4 4 4 6 8 9 9 9 10 11 11 10 10 9 8 8 6 5 4 3 2 2 2 2 2 2 1 1 1 2 1 2 2 3 4 5 6 8 10 10 11 13 15 15 16 15 13
14 13 12 11 12 13 14 14 14 14 14 14 13 12 13 14 14 14 12 11 9 9 8 7 6 5 4 3 2 1 1 2 2 2 2 3 3 3 3 4 6 9 11 11 11 9 10 10 10 9 9 8 7 6 5 3 2 2 2 2 1 2 2 3 3 1 1 1 2 3 4 4 5 7 8 9 11 11 10 11 12 13 14 14 12
12 12 11 10 9 10 10 10 11 11 11 11 10 10 10 10 11 11 10 9 8 7 6 4 3 3 2 2 2 2 2 2 2 2 2 2 2 2 3 5 8 11 12 11 9 9 9 9 9 8 7 6 5 4 3 3 2 2 2 3 2 2 4 7 6 3 3 4 3 4 5 6 6 8 8 8 9 10 10 12 12 12 13 13 13
11 11 11 10 9 9 9 9 9 9 9 10 10 9 8 8 8 7 7 6 6 5 4 3 3 2 2 2 3 3 3 3 3 4 5 5 5 4 4 5 6 9 9 8 7 8 9 8 8 7 6 5 5 4 4 4 4 4 3 3 3 3 4 5 4 3 4 5 4 4 6 8 8 9 9 8 9 10 10 11 12 12 12 14 16
10 10 11 10 10 9 8 8 8 8 9 9 9 8 7 7 6 5 4 4 4 4 3 3 3 3 3 3 3 3 3 3 3 3 4 4 4 4 4 4 5 8 9 8 8 8 7 7 7 7 6 6 6 5 5 5 5 4 4 3 4 4 3 3 3 3 4 4 4 7 9 9 8 9 9 8 9 10 11 12 13 13 14 16 18
8 8 8 8 7 7 7 7 8 7 8 8 8 7 6 6 5 5 5 5 4 5 5 5 5 4 4 4 4 5 5 5 5 4 4 4 5 6 6 7 8 9 9 9 9 8 8 7 7 6 7 7 6 6 6 6 6 6 6 5 5 4 4 4 4 5 5 4 6 10 11 9 8 9 10 10 10 10 11 13 14 14 15 18 19
7 6 6 5 5 5 5 5 6 6 6 7 6 6 6 5 5 5 5 5 6 7 6 6 6 6 6 7 6 6 7 6 5 5 5 5 6 7 8 8 9 9 9 9 10 9 8 8 7 7 7 8 7 7 7 7 7 7 8 8 8 7 7 8 9 11 10 8 9 11 12 9 8 10 10 10 10 10 11 12 13 13 14 16 17
6 5 5 5 4 4 3 3 3 4 4 4 4 4 4 5 5 6 6 6 7 8 7 7 7 6 7 7 7 6 6 6 6 5 5 6 6 7 8 9 9 10 10 11 12 10 8 8 8 8 7 8 8 8 7 6 6 6 6 6 7 8 9 9 11 13 12 9 7 8 8 7 7 8 9 9 10 10 11 12 12 12 13 14 13
3 3 3 4 4 4 3 3 3 3 3 4 4 4 4 4 5 5 6 7 7 8 8 7 8 8 7 8 7 6 6 6 6 6 6 7 7 8 8 8 9 10 10 12 13 12 11 11 11 10 10 10 10 9 8 6 5 6 6 5 6 8 8 7 7 8 8 5 5 5 6 6 7 8 8 9 10 11 12 12 11 11 11 11 11
1 1 2 2 2 3 3 2 2 3 3 3 4 4 5 5 5 5 6 7 7 8 9 9 9 9 10 9 8 7 6 6 6 7 7 7 7 7 7 7 8 8 9 10 11 11 11 12 12 11 11 11 10 10 9 8 7 7 8 7 7 7 7 7 7 7 5 5 5 6 6 6 8 8 8 9 10 12 11 11 10 10 10 10 11
2 3 3 2 2 2 1 1 2 3 3 4 4 4 4 5 5 5 6 7 7 8 9 10 9 10 11 11 10 9 8 6 6 7 7 7 7 6 6 6 7 7 8 9 9 9 8 9 9 9 9 9 9 10 10 10 8 8 8 7 7 7 6 6 6 6 5 5 5 5 5 6 7 8 8 9 10 10 9 8 9 9 9 9 10
4 4 4 4 4 3 3 4 5 6 6 5 5 5 5 5 5 5 6 7 7 8 9 10 10 11 12 12 11 11 10 9 8 8 8 8 7 7 7 7 7 8 8 9 9 9 10 9 9 8 8 9 9 8 7 7 6 6 5 6 6 6 5 5 6 6 6 5 5 5 6 6 6 7 7 8 8 8 8 8 8 8 8 9 10
4 4 5 5 5 5 5 6 6 7 7 6 6 7 7 7 7 7 7 8 8 8 9 9 10 12 14 14 13 13 13 12 11 11 11 10 10 9 8 8 8 9 10 10 10 10 10 8 7 7 7 8 8 7 5 6 7 6 6 6 6 6 5 5 5 6 5 5 5 6 7 6 6 6 6 7 7 7 7 7 8 8 9 9 10
4 4 5 5 6 6 7 7 7 7 8 9 9 9 8 8 9 9 9 9 9 9 10 10 10 12 14 15 15 15 15 14 13 13 13 13 13 12 10 9 10 11 11 11 11 10 9 7 7 7 7 8 8 8 8 8 8 7 6 6 6 7 7 6 5 5 5 6 6 6 6 6 6 5 5 6 6 6 7 8 8 9 10 10 11
5 5 5 5 6 6 6 7 7 7 8 9 10 9 9 9 11 12 12 12 11 11 11 11 11 11 13 15 15 16 17 16 14 14 14 14 14 13 12 12 13 13 12 12 13 12 9 8 7 7 7 8 9 10 10 10 10 9 9 8 7 6 6 5 5 5 5 5 5 5 5 5 5 5 5 6 6 7 7 8 9 10 11 11 12
7 7 6 6 6 6 6 7 7 8 8 9 9 10 11 11 12 13 13 13 13 13 12 12 12 12 13 14 14 14 15 15 15 15 16 15 14 14 13 14 14 14 14 14 14 13 11 9 8 8 8 9 10 11 11 11 11 11 10 10 8 6 6 8 7 6 4 3 3 4 4 4 5 5 6 6 6 7 8 9 9 10 12 13 13
8 8 7 7 8 7 7 8 8 8 9 9 9 10 10 11 11 12 12 13 14 14 14 15 15 15 15 15 14 14 14 14 15 16 17 18 17 16 16 17 17 17 16 16 15 14 12 10 10 9 9 10 11 11 11 10 9 8 8 8 7 7 7 6 3 2 2 3 3 3 4 4 5 6 6 6 7 8 9 10 10 11 12 12 13
7 7 7 8 8 9 9 9 9 9 10 10 9 9 10 10 11 11 11 12 13 14 15 16 16 16 15 16 16 15 15 14 14 15 16 18 18 18 19 21 21 19 18 17 16 15 13 12 11 10 10 11 11 10 8 6 6 6 6 6 8 9 9 6 3 3 4 4 2 3 4 4 5 6 6 7 8 9 9 10 11 11 12 13 13
6 6 7 8 8 9 9 9 10 10 10 10 10 10 10 11 11 11 11 11 11 12 13 14 15 15 15 15 15 15 15 15 15 14 14 16 17 18 20 22 22 20 19 18 17 16 14 12 11 11 12 10 8 5 3 3 3 3 4 7 11 12 12 10 8 8 7 4 3 4 4 5 6 7 7 8 9 10 10 11 12 13 14 14 15
8 8 8 8 9 9 10 10 11 11 11 11 12 12 11 11 12 11 11 12 12 12 13 13 14 15 15 15 15 16 16 16 16 16 17 18 19 18 19 21 22 21 20 19 18 16 14 13 13 12 10 6 4 2 2 2 4 5 8 13 15 14 12 10 9 8 6 4 3 4 5 6 7 7 8 9 10 11 12 13 14 15 15 15 17
9 9 9 9 9 10 10 10 10 11 11 11 12 12 12 13 13 13 13 13 13 13 14 14 14 14 14 14 15 15 15 16 17 18 20 21 20 19 20 22 23 22 21 20 18 16 14 13 11 8 3 2 4 3 3 5 9 13 15 17 17 15 11 8 5 4 3 3 3 4 6 7 8 8 9 10 11 13 14 15 15 15 15 16 18
Wind_Direction
196 199 198 197 199 198 199 200 198 200 204 203 200 201 203 202 202 206 207 208 211 213 214 215 217 220 219 222 223 222 226 224 222 233 241 242 238 227 232 244 243 236 237 233 233 243 248 245 241 245 249 248 250 254 259 263 265 269 269 269 271 271 268 267 271 282 293 299 304 307 305 304 306 303 311 323 315 318 330 326 322 329 331 318 310
196 199 197 197 200 199 198 200 200 200 202 203 202 203 206 205 204 206 210 214 215 213 216 219 220 222 221 223 226 225 228 229 225 228 236 242 243 237 238 249 245 234 236 238 233 234 245 251 246 249 256 256 255 257 260 262 263 264 266 268 271 270 266 265 268 279 290 296 297 296 295 297 302 301 303 313 312 314 325 325 320 320 321 322 312
197 200 199 198 201 200 198 200 202 202 202 204 205 205 207 209 209 209 209 214 219 216 216 218 220 223 223 225 229 229 231 234 231 230 234 239 242 236 233 244 246 238 237 242 239 234 240 248 247 249 254 255 257 261 263 263 261 263 265 266 269 273 271 266 268 274 280 283 284 283 286 289 291 294 301 311 312 316 327 329 325 320 321 327 316
200 203 202 200 200 201 200 201 202 203 203 205 206 206 208 210 213 213 210 211 219 221 219 221 223 225 226 229 232 233 234 235 234 234 237 240 243 239 234 237 242 240 238 237 235 233 236 241 245 248 252 256 260 265 268 268 267 268 269 267 263 261 263 266 271 276 275 276 278 278 281 284 286 291 299 310 314 313 323 332 331 318 318 329 321
205 207 205 202 200 201 202 202 203 203 203 205 207 207 207 209 213 217 215 214 220 224 224 226 227 228 230 231 233 236 236 236 236 235 237 240 242 242 241 242 244 243 241 240 238 237 237 240 245 248 251 257 265 269 269 268 272 275 271 265 260 257 257 261 270 277 275 273 275 277 280 285 289 291 297 308 311 302 309 327 330 317 317 324 320
211 211 207 204 202 201 204 205 205 205 205 206 207 208 207 208 211 215 218 218 221 225 227 229 229 230 231 230 231 235 235 236 236 234 233 236 241 242 242 245 247 244 243 245 244 243 243 246 249 250 253 257 262 266 268 271 275 273 267 266 267 268 266 265 273 284 285 282 279 280 283 286 288 291 294 301 305 303 307 324 328 318 313 317 321
214 211 209 208 206 203 203 206 207 208 208 208 207 208 208 208 209 212 217 219 219 223 226 228 229 231 232 230 229 234 236 235 235 235 231 231 237 240 240 242 247 248 246 245 244 247 250 251 253 256 258 259 260 262 267 272 272 267 268 273 276 275 275 274 276 283 286 285 282 282 283 284 289 294 294 297 307 317 323 325 323 313 308 316 322
212 209 209 210 211 208 205 205 207 207 208 207 207 208 208 209 209 210 215 218 218 220 224 226 228 230 232 232 230 234 238 238 236 235 233 231 233 238 241 241 243 247 250 250 251 254 253 253 256 258 258 256 255 257 260 266 273 275 276 277 275 274 277 279 280 282 285 286 284 285 287 289 292 292 292 297 308 321 324 317 316 310 310 319 316
214 213 212 211 212 214 212 209 208 207 207 206 205 204 205 207 209 210 214 218 218 218 220 222 225 226 230 233 231 231 237 240 239 237 235 233 231 232 237 241 242 245 249 253 255 257 257 258 257 252 251 254 258 261 264 267 270 271 273 274 272 274 277 280 282 286 289 290 291 291 292 293 293 292 295 302 308 317 320 312 310 308 309 313 304
216 218 216 212 212 217 219 218 216 213 211 211 209 205 203 203 207 210 213 216 216 216 217 219 222 226 231 234 232 232 234 238 241 242 239 236 232 229 228 232 238 241 246 253 255 256 259 262 262 261 260 261 266 269 268 267 266 262 264 269 270 273 277 280 283 288 290 291 294 295 295 294 293 296 302 307 309 314 316 308 306 307 309 312 309
214 217 217 214 212 215 218 220 222 220 217 215 214 212 208 204 205 209 210 212 216 218 219 219 222 226 229 230 230 230 231 236 242 245 242 239 237 236 235 238 243 246 249 255 255 253 257 257 262 271 273 269 269 270 267 265 264 261 261 265 269 273 275 278 283 285 286 288 291 292 294 295 295 297 299 301 301 303 306 306 305 306 307 311 311
212 216 220 223 222 219 217 218 221 222 220 218 216 216 214 211 209 211 211 213 218 223 223 224 229 231 232 232 230 228 232 239 244 244 241 240 238 239 241 244 248 250 252 255 253 249 249 245 246 259 269 269 269 272 269 261 257 259 262 264 268 270 270 277 284 285 284 290 294 293 289 288 291 292 288 286 289 298 304 303 301 302 302 306 308
222 228 230 235 238 232 223 220 221 221 219 218 218 217 217 216 215 215 216 216 215 218 220 222 227 231 233 232 226 230 238 240 240 239 240 241 238 237 240 243 248 252 254 255 255 252 250 249 246 249 257 264 264 264 263 259 257 259 263 268 273 271 269 273 281 288 293 295 294 290 284 280 279 280 282 283 290 297 298 294 296 299 300 303 304
232 237 237 237 239 235 228 225 225 224 221 218 218 219 219 219 216 217 222 223 221 222 223 224 225 230 238 236 226 230 241 241 239 239 240 241 240 238 241 245 248 252 254 254 253 252 253 256 257 256 258 261 259 256 256 259 261 262 266 275 278 273 274 278 284 292 298 294 285 285 287 285 279 278 282 286 291 293 290 293 297 295 295 300 301
227 234 237 236 236 234 230 227 227 227 224 220 218 220 221 222 221 221 225 229 231 233 234 234 233 236 247 250 239 238 243 243 243 246 244 245 244 242 244 247 248 248 251 252 250 249 250 254 259 262 262 262 261 261 261 264 267 268 273 281 278 267 272 280 284 286 284 276 278 286 292 292 285 284 287 289 292 292 294 304 306 301 308 314 312
234 236 240 243 246 245 239 234 232 232 229 224 221 221 221 224 227 228 230 232 236 239 241 240 239 241 248 251 249 252 253 250 247 248 247 246 247 248 247 248 250 248 248 250 250 249 249 252 257 261 263 267 270 270 270 271 272 271 270 270 266 263 268 275 278 278 273 268 273 281 286 288 287 288 290 290 291 295 302 315 312 304 313 310 306
241 241 243 249 253 253 247 239 235 238 238 233 230 227 225 226 229 232 235 235 237 240 243 243 242 245 249 250 252 263 270 265 253 248 247 244 245 247 247 250 256 252 246 247 248 248 250 255 259 260 266 275 279 276 275 275 274 271 265 259 257 261 268 273 275 275 273 270 272 274 276 279 281 284 287 289 294 301 309 322 305 298 306 302 298
242 243 245 247 248 250 249 240 235 240 244 242 241 238 235 236 237 237 237 237 238 241 243 244 244 247 252 251 250 259 270 272 261 250 248 247 244 246 249 253 256 250 245 247 250 253 258 262 264 266 271 278 280 278 278 277 273 270 264 260 259 264 267 269 272 278 278 272 267 264 263 264 268 277 287 295 301 306 306 301 294 294 301 287 278
245 244 245 244 243 248 253 247 239 237 233 229 237 243 244 245 243 240 238 238 241 242 241 244 247 249 252 252 249 252 262 270 266 256 251 250 249 248 249 249 250 247 243 244 248 257 265 267 267 271 275 277 279 279 277 273 271 270 271 275 277 272 267 267 274 284 282 267 251 250 254 258 268 284 296 301 304 307 305 300 292 282 274 272 277
244 243 244 244 242 244 249 247 235 226 221 220 228 235 242 248 246 242 242 243 245 243 242 244 249 250 251 252 252 252 259 267 269 263 258 257 255 253 249 243 240 238 238 245 252 263 273 273 271 271 273 273 274 275 273 269 269 272 278 287 286 274 269 270 269 270 265 236 234 250 263 286 301 307 311 311 309 309 308 305 296 276 257 251 301
237 237 238 239 238 238 242 243 232 220 218 223 227 227 231 240 242 238 239 241 240 240 243 246 247 248 249 252 254 257 260 265 268 267 264 262 258 253 248 243 241 240 247 259 261 255 265 273 274 272 274 275 276 277 277 275 274 272 271 272 261 254 255 244 225 230 248 255 268 290 314 325 325 323 320 316 313 313 314 314 307 284 254 221 199
228 227 228 230 233 233 235 235 225 214 214 217 220 221 224 235 242 240 239 241 240 238 241 246 249 252 257 261 265 266 266 268 268 266 263 258 253 247 245 246 249 247 245 250 249 243 254 268 275 275 277 281 282 285 287 284 283 280 244 195 181 190 183 156 152 206 284 292 316 334 336 333 328 322 319 315 312 315 317 315 308 292 266 249 233
225 226 228 228 229 230 230 229 224 217 213 212 215 220 224 230 237 236 233 238 244 247 250 254 259 265 270 273 273 271 269 268 265 262 259 254 249 245 245 246 247 246 245 246 247 247 252 260 265 268 274 280 282 287 297 293 178 104 113 127 138 145 143 136 135 222 319 337 339 335 333 330 322 314 314 312 309 312 318 319 319 315 308 303 300
223 220 219 217 219 223 225 225 222 215 208 206 208 217 224 229 236 240 240 246 254 260 266 272 278 280 279 277 270 261 259 260 257 252 252 252 250 250 251 248 246 249 250 246 239 235 233 233 236 246 261 278 285 284 103 119 127 119 119 127 134 136 133 132 139 302 330 329 324 322 322 319 311 302 297 299 306 321 337 344 342 336 332 329 325
213 209 208 207 212 217 217 216 212 204 203 205 209 216 223 229 236 241 242 247 256 263 268 275 280 277 273 269 257 242 236 241 243 241 242 243 242 243 243 239 237 238 237 228 217 213 211 208 204 203 203 193 141 130 131 133 134 134 133 134 135 135 135 139 186 310 317 317 318 319 317 310 301 290 289 303 326 345 353 354 350 343 340 337 332
199 202 201 198 205 213 213 212 206 194 192 196 197 201 210 218 223 225 223 226 235 241 244 240 229 224 229 233 229 217 208 211 222 227 229 228 222 222 224 225 227 230 227 216 203 192 186 180 174 170 165 156 146 145 147 146 142 140 134 126 122 121 120 41 321 317 315 316 316 314 310 306 302 303 321 343 345 342 346 349 341 333 329 328 329
131 134 139 148 161 174 180 184 182 175 174 175 172 166 161 160 164 166 162 163 167 159 152 160 170 175 183 192 198 196 191 190 197 204 210 209 203 209 227 230 226 224 221 209 186 161 153 155 154 153 152 152 153 155 152 142 132 124 117 115 117 118 63 326 318 314 313 314 316 316 323 334 341 347 356 353 337 327 327 323 321 321 320 322 327
111 111 112 115 121 126 129 133 142 145 141 138 141 141 139 134 130 129 129 128 126 123 121 124 129 129 137 148 153 158 165 166 167 172 181 190 190 193 221 231 204 172 194 189 160 152 163 166 157 150 148 148 147 146 141 130 121 119 123 129 144 310 332 330 329 330 331 336 356 7 13 17 6 356 350 329 317 318 320 318 320 322 323 327 333
101 102 103 102 103 106 108 107 110 115 116 119 121 118 120 123 123 122 124 122 118 116 112 111 111 111 116 123 125 130 141 147 155 166 170 186 195 190 197 217 199 194 209 189 167 160 161 158 152 145 144 146 146 145 143 135 130 132 131 121 97 51 50 54 44 29 28 43 42 30 25 17 330 327 327 310 313 320 321 321 325 328 330 336 338
94 96 98 98 97 98 98 97 98 99 101 107 111 110 111 114 115 117 118 117 117 116 115 114 111 109 114 120 120 126 137 142 156 181 212 265 255 247 246 237 215 200 189 170 156 151 150 151 152 149 150 154 153 152 150 142 135 133 121 115 120 113 106 106 92 57 29 50 63 9 338 318 305 319 321 305 311 321 321 322 328 331 333 337 334
94 94 92 92 94 96 96 94 95 96 98 100 104 109 112 115 116 117 117 117 117 117 118 121 119 117 121 122 119 128 147 174 233 255 264 262 260 260 252 230 193 180 169 148 140 150 157 157 157 157 158 160 158 155 152 143 139 136 124 132 138 117 118 137 109 60 23 0 336 307 319 318 305 310 310 305 313 321 318 319 325 327 326 329 326
95 96 94 92 95 97 97 97 99 100 102 103 104 108 113 117 119 119 119 119 118 116 118 123 125 129 138 147 157 185 224 241 238 243 244 239 233 227 215 180 161 163 156 139 140 157 162 159 160 161 160 160 158 156 153 149 154 170 176 182 166 131 171 237 265 236 214 291 293 294 306 309 304 311 315 314 319 324 319 315 318 318 318 320 318
97 99 101 103 106 105 104 104 105 105 106 109 109 110 114 120 123 124 125 126 126 125 130 137 152 170 186 187 180 173 167 160 148 132 132 134 126 139 147 140 146 154 149 138 143 160 161 159 163 163 160 164 166 165 172 182 194 211 210 205 201 211 250 276 293 294 285 299 302 293 303 311 311 313 316 315 316 319 317 314 315 315 315 316 313
111 113 112 113 115 116 115 117 118 118 119 119 116 116 123 132 134 135 138 141 145 152 161 178 197 200 191 173 154 138 128 126 121 119 119 110 93 86 96 110 136 151 149 145 156 164 161 163 166 164 167 179 184 188 202 208 209 215 217 216 229 248 273 296 308 298 303 319 319 293 296 307 311 312 315 314 313 315 314 313 314 314 313 313 312
109 117 120 120 118 117 118 122 125 128 129 125 121 123 132 134 133 139 149 157 166 170 167 167 171 169 164 158 140 128 133 146 153 152 141 133 138 145 136 133 149 154 150 153 163 168 167 169 172 176 185 194 199 203 210 214 217 222 227 229 235 248 271 295 290 280 298 315 294 282 295 308 312 311 313 311 309 310 311 308 308 308 307 307 307
96 104 111 113 115 119 127 131 132 135 137 134 131 134 135 133 135 143 149 153 162 163 158 156 156 155 152 149 142 142 149 153 153 153 150 150 156 153 144 146 157 159 157 162 168 174 177 178 181 189 195 199 204 209 210 217 222 222 222 222 227 243 263 263 258 274 294 295 282 290 301 305 299 298 301 300 299 304 306 304 305 305 304 305 309
105 109 110 110 113 119 129 138 144 148 149 147 147 146 147 150 155 154 155 160 164 165 165 165 163 159 156 154 153 154 156 156 155 152 147 148 156 155 153 158 163 164 168 175 175 175 177 181 187 196 198 200 206 206 205 214 222 225 230 235 235 238 246 250 261 278 288 284 282 292 299 298 295 300 303 302 303 307 308 307 308 308 306 310 317
126 130 129 128 124 120 125 142 152 156 158 161 160 157 163 174 174 168 171 176 174 173 177 176 168 167 172 171 166 164 165 166 168 166 159 161 170 173 172 176 178 178 184 191 190 185 180 181 185 188 190 195 200 201 202 210 221 232 246 256 255 260 269 276 283 292 295 287 279 288 296 298 300 302 302 306 311 312 307 307 309 310 310 315 319
114 127 139 133 125 128 143 152 148 153 166 177 183 183 184 192 194 189 190 193 188 186 191 190 181 184 196 196 186 181 178 173 173 179 180 180 182 183 183 187 192 195 200 206 206 203 201 202 202 203 205 210 214 216 215 211 217 234 250 257 258 268 282 287 285 292 296 284 270 280 289 291 294 296 301 308 308 304 303 308 311 311 312 313 314
101 161 182 166 150 155 168 167 165 177 187 191 199 202 197 197 201 199 200 205 204 200 203 206 201 204 212 213 204 199 198 192 193 199 200 197 197 195 188 190 198 204 207 210 211 210 211 213 215 216 220 224 229 232 233 234 239 253 265 266 260 260 266 264 262 269 275 268 270 282 290 292 295 299 302 302 297 296 303 311 312 310 312 313 312
220 238 239 233 223 203 198 220 229 225 219 211 212 219 216 213 214 211 208 213 214 213 216 217 213 218 225 223 215 212 211 208 213 217 211 208 213 210 198 197 205 206 205 206 205 202 202 207 212 217 223 230 237 244 250 253 256 260 267 269 263 256 256 259 261 261 259 263 276 285 285 287 293 297 298 298 299 304 311 314 312 314 317 316 314
248 248 249 253 256 248 236 237 241 241 237 228 226 232 232 231 233 233 229 226 223 223 226 224 220 227 234 231 224 222 218 211 217 227 222 215 218 218 210 209 209 203 200 202 201 200 203 209 212 218 228 238 245 252 260 263 263 262 264 263 260 257 256 256 259 261 263 269 278 281 281 286 292 297 300 302 305 310 313 313 315 320 320 318 319
287 278 267 263 265 261 249 242 244 249 248 239 234 238 241 242 244 246 246 245 240 235 235 233 227 230 236 235 229 229 227 217 214 221 223 220 220 220 219 218 215 208 204 204 205 207 211 212 210 216 231 244 250 251 253 259 263 265 260 254 252 250 244 241 251 265 276 280 278 278 283 288 291 293 297 302 305 308 309 311 315 317 318 319 320
311 304 289 280 274 270 264 259 254 254 253 244 238 241 247 249 250 250 251 252 251 245 242 240 234 234 241 241 235 234 234 227 218 220 223 220 217 217 215 216 218 218 216 215 215 214 209 205 213 229 244 255 263 265 263 262 263 262 256 251 253 255 250 244 248 262 271 273 272 273 277 281 285 289 295 299 305 307 306 309 313 314 316 317 317
310 304 299 296 288 280 275 270 264 264 266 262 256 254 252 249 250 252 251 252 253 250 247 244 238 234 241 247 243 239 237 231 224 223 223 221 220 221 217 213 218 225 224 222 224 224 216 213 229 249 261 269 276 282 284 281 278 272 259 245 241 246 250 245 241 249 258 259 261 265 271 275 278 284 292 297 303 305 305 308 311 314 315 316 315
283 286 292 294 289 283 280 278 274 270 269 271 270 268 265 261 260 259 255 252 251 247 245 247 243 238 240 246 246 242 238 233 227 226 225 223 222 221 216 214 222 229 228 226 231 233 228 227 240 256 266 274 284 292 296 295 296 293 278 257 238 227 231 235 235 236 245 253 256 263 270 274 277 282 290 295 297 301 306 309 311 312 312 312 312
284 287 288 286 284 284 285 284 281 276 274 274 274 272 269 268 267 265 263 260 257 252 249 248 247 246 245 245 243 241 239 234 230 230 234 234 231 226 226 233 237 234 232 234 238 237 236 242 253 263 272 281 288 294 297 294 289 285 278 264 244 228 228 234 240 247 254 263 266 263 265 272 279 285 293 298 300 303 307 308 308 309 309 308 307
294 293 291 288 286 285 284 284 284 283 282 280 277 272 271 271 271 269 269 268 266 262 259 256 253 252 250 247 244 243 241 236 230 228 233 239 241 240 241 244 243 238 237 238 236 234 239 250 260 270 279 284 288 294 299 289 269 257 253 251 249 244 237 233 244 262 254 255 271 276 274 282 289 291 295 300 300 301 303 304 305 307 307 306 306
300 296 294 292 290 287 285 283 283 282 281 280 278 277 277 276 274 271 270 269 267 266 265 263 260 257 252 249 248 246 243 238 234 227 226 235 245 248 245 242 239 237 236 235 233 235 244 255 266 276 283 287 290 293 285 258 257 263 254 251 258 261 257 252 255 257 255 260 285 289 281 286 292 292 294 297 297 298 301 303 305 305 305 306 307
299 296 294 292 290 288 286 284 283 283 282 280 278 277 276 276 275 274 273 273 272 271 269 268 267 264 259 255 253 252 248 246 244 240 236 240 246 248 245 242 238 233 231 234 236 239 246 259 270 277 281 281 271 254 241 247 252 247 242 247 256 266 271 270 266 262 257 254 267 280 284 287 288 289 292 294 295 297 299 299 300 302 304 305 306
295 296 297 295 291 289 289 289 287 285 283 281 280 279 278 277 276 274 273 272 272 272 272 272 272 271 268 263 260 257 254 250 249 248 247 246 246 245 243 242 238 234 232 233 236 241 250 264 272 273 269 258 251 251 261 261 250 242 243 250 261 271 276 273 265 263 263 254 255 274 283 284 283 288 293 294 295 297 298 297 298 302 302 301 302
Height
1569 1570 1571 1573 1575 1576 1578 1579 1580 1582 1583 1584 1585 1587 1588 1589 1591 1592 1592 1593 1594 1594 1595 1596 1597 1598 1599 1600 1600 1601 1602 1602 1603 1603 1603 1604 1604 1605 1605 1604 1605 1605 1605 1606 1607 1607 1607 1607 1607 1607 1607 1607 1608 1608 1608 1608 1608 1608 1607 1607 1607 1606 1606 1605 1604 1603 1603 1602 1602 1602 1601 1601 1600 1599 1599 1599 1598 1596 1595 1595 1594 1594 1594 1592 1589
1567 1568 1569 1571 1573 1574 1576 1577 1578 1580 1582 1583 1584 1585 1586 1587 1588 1590 1590 1591 1592 1593 1594 1595 1595 1596 1597 1598 1599 1599 1600 1600 1601 1602 1602 1603 1603 1603 1604 1603 1603 1604 1604 1604 1605 1605 1605 1605 1606 1606 1606 1606 1606 1606 1607 1607 1607 1607 1606 1606 1606 1606 1605 1604 1603 1603 1602 1601 1601 1601 1600 1600 1600 1599 1598 1597 1597 1595 1595 1595 1594 1593 1593 1592 1588
1565 1566 1568 1569 1571 1572 1574 1575 1576 1578 1580 1581 1583 1584 1585 1585 1586 1587 1589 1590 1590 1591 1592 1593 1594 1594 1595 1596 1596 1597 1598 1598 1599 1600 1601 1601 1601 1602 1603 1602 1602 1602 1603 1603 1603 1604 1604 1604 1605 1605 1605 1605 1605 1605 1605 1605 1605 1605 1605 1605 1605 1605 1604 1603 1602 1602 1601 1601 1600 1599 1599 1599 1599 1598 1597 1596 1595 1594 1594 1593 1593 1592 1591 1591 1589
1564 1564 1566 1567 1569 1570 1572 1573 1575 1576 1578 1580 1581 1582 1584 1584 1585 1585 1587 1588 1589 1589 1590 1591 1592 1592 1593 1594 1594 1595 1596 1597 1597 1598 1599 1599 1599 1600 1600 1601 1601 1601 1601 1602 1602 1603 1603 1603 1604 1604 1604 1604 1603 1603 1604 1604 1603 1603 1603 1603 1603 1603 1602 1602 1601 1600 1600 1599 1599 1598 1598 1598 1597 1597 1596 1595 1594 1593 1592 1592 1591 1591 1590 1590 1589
1561 1562 1564 1566 1568 1569 1570 1572 1573 1574 1576 1577 1579 1580 1582 1583 1583 1584 1585 1586 1587 1587 1588 1589 1590 1590 1591 1591 1592 1593 1593 1594 1595 1596 1597 1598 1598 1598 1599 1599 1599 1599 1600 1600 1600 1601 1601 1601 1602 1602 1602 1602 1602 1602 1602 1602 1602 1602 1602 1601 1600 1600 1600 1600 1600 1599 1598 1598 1597 1597 1596 1596 1596 1595 1594 1594 1593 1592 1591 1590 1590 1589 1588 1587 1587
1559 1561 1563 1564 1566 1568 1569 1570 1572 1573 1574 1576 1577 1579 1580 1581 1582 1582 1583 1584 1585 1586 1586 1587 1588 1588 1589 1589 1590 1591 1591 1592 1593 1594 1595 1596 1597 1597 1597 1598 1598 1598 1599 1599 1599 1599 1599 1600 1600 1600 1600 1600 1600 1600 1600 1600 1600 1600 1599 1598 1598 1598 1597 1597 1597 1597 1597 1596 1596 1595 1595 1595 1595 1594 1593 1592 1591 1590 1590 1589 1589 1588 1587 1586 1585
1558 1559 1561 1562 1564 1566 1567 1569 1570 1572 1573 1574 1576 1577 1578 1579 1580 1580 1581 1582 1583 1584 1584 1585 1586 1586 1587 1587 1588 1588 1589 1590 1590 1591 1592 1594 1595 1595 1596 1596 1597 1597 1597 1598 1598 1598 1598 1598 1598 1598 1598 1598 1598 1598 1598 1598 1598 1598 1597 1596 1596 1596 1596 1596 1595 1595 1595 1595 1594 1593 1593 1593 1593 1593 1592 1590 1589 1589 1589 1588 1588 1587 1586 1584 1584
1556 1558 1560 1561 1562 1564 1565 1567 1569 1570 1571 1572 1574 1575 1576 1577 1578 1579 1580 1580 1581 1582 1583 1583 1584 1584 1585 1585 1586 1587 1587 1587 1588 1588 1590 1591 1592 1593 1593 1594 1595 1596 1596 1596 1596 1596 1596 1596 1596 1597 1596 1596 1596 1596 1596 1596 1596 1595 1595 1595 1595 1595 1595 1595 1594 1594 1594 1593 1592 1591 1591 1591 1591 1591 1590 1589 1588 1588 1588 1588 1586 1585 1584 1583 1582
1554 1556 1558 1559 1561 1562 1564 1565 1566 1568 1569 1569 1571 1572 1574 1575 1576 1577 1578 1578 1579 1581 1581 1582 1582 1583 1583 1584 1584 1585 1585 1585 1585 1586 1587 1588 1589 1591 1591 1592 1593 1594 1595 1595 1595 1595 1595 1594 1595 1595 1594 1593 1593 1594 1594 1594 1594 1594 1594 1593 1593 1593 1593 1593 1593 1592 1592 1591 1590 1590 1589 1590 1590 1589 1588 1587 1586 1586 1586 1586 1585 1584 1583 1582 1581
1552 1554 1555 1557 1558 1560 1562 1563 1564 1566 1566 1567 1568 1569 1571 1573 1574 1575 1576 1576 1577 1578 1579 1580 1581 1582 1582 1582 1583 1583 1583 1584 1583 1584 1585 1585 1586 1588 1589 1590 1591 1591 1592 1592 1593 1593 1593 1593 1593 1592 1591 1592 1592 1592 1592 1592 1592 1592 1592 1592 1592 1592 1592 1592 1592 1591 1591 1590 1589 1589 1588 1589 1589 1588 1587 1587 1586 1585 1585 1584 1583 1582 1581 1580 1579
1550 1551 1553 1554 1556 1557 1559 1561 1562 1563 1564 1565 1566 1567 1568 1570 1571 1572 1573 1574 1575 1576 1577 1578 1579 1580 1581 1581 1581 1582 1582 1582 1581 1582 1583 1583 1584 1586 1587 1588 1588 1589 1590 1590 1591 1592 1592 1592 1592 1590 1589 1590 1591 1590 1590 1591 1590 1590 1591 1591 1591 1591 1591 1591 1591 1590 1590 1589 1588 1588 1588 1588 1588 1587 1587 1586 1585 1584 1583 1582 1581 1580 1580 1579 1578
1548 1550 1551 1553 1554 1555 1556 1558 1560 1561 1563 1564 1564 1565 1566 1567 1568 1570 1571 1572 1573 1573 1575 1576 1577 1578 1579 1580 1580 1581 1580 1579 1579 1580 1581 1582 1583 1584 1585 1586 1586 1587 1588 1588 1589 1590 1589 1589 1590 1588 1587 1588 1590 1589 1589 1589 1589 1589 1589 1589 1589 1590 1589 1589 1589 1589 1588 1588 1587 1586 1586 1586 1586 1586 1585 1584 1584 1583 1582 1581 1580 1579 1578 1578 1577
1547 1548 1550 1552 1553 1554 1554 1555 1557 1559 1560 1561 1562 1563 1564 1565 1566 1567 1568 1569 1570 1571 1572 1573 1574 1575 1576 1577 1578 1578 1577 1576 1578 1579 1579 1580 1581 1582 1582 1583 1584 1585 1586 1586 1587 1587 1587 1587 1587 1587 1586 1587 1588 1587 1587 1587 1587 1587 1588 1588 1587 1587 1587 1588 1588 1587 1587 1586 1586 1585 1584 1584 1584 1584 1583 1582 1582 1582 1581 1580 1579 1578 1577 1576 1575
1545 1546 1547 1550 1552 1553 1553 1553 1555 1557 1558 1559 1560 1561 1562 1563 1564 1565 1566 1567 1568 1568 1569 1569 1570 1572 1573 1574 1576 1575 1574 1575 1577 1577 1578 1578 1579 1580 1581 1581 1582 1583 1583 1584 1585 1585 1585 1585 1585 1585 1585 1586 1586 1586 1585 1585 1584 1585 1585 1585 1585 1585 1585 1586 1586 1586 1585 1585 1584 1583 1582 1582 1582 1582 1581 1580 1580 1580 1579 1578 1578 1577 1576 1575 1574
1543 1544 1545 1547 1549 1551 1552 1552 1553 1555 1556 1557 1558 1559 1560 1561 1562 1563 1564 1564 1566 1566 1567 1568 1568 1570 1571 1574 1575 1574 1573 1575 1576 1576 1577 1577 1577 1578 1579 1579 1580 1580 1581 1581 1582 1583 1583 1583 1583 1583 1584 1584 1584 1584 1584 1583 1582 1582 1583 1584 1584 1582 1582 1583 1583 1584 1584 1583 1582 1581 1580 1581 1580 1580 1579 1578 1578 1578 1577 1577 1576 1575 1575 1574 1573
1542 1543 1544 1545 1547 1549 1552 1553 1553 1554 1555 1556 1557 1558 1559 1560 1561 1561 1562 1563 1564 1565 1566 1567 1567 1568 1569 1572 1574 1573 1573 1574 1575 1575 1575 1576 1576 1577 1577 1577 1578 1579 1579 1579 1580 1581 1581 1581 1582 1582 1582 1582 1583 1583 1583 1582 1581 1581 1582 1582 1582 1581 1580 1581 1581 1581 1581 1581 1581 1580 1579 1579 1578 1578 1577 1577 1577 1576 1576 1576 1576 1575 1575 1573 1573
1539 1541 1542 1543 1545 1547 1550 1553 1554 1554 1554 1554 1555 1556 1557 1558 1559 1560 1561 1562 1562 1563 1564 1564 1566 1567 1567 1569 1571 1571 1571 1573 1574 1574 1574 1574 1575 1575 1575 1576 1577 1577 1577 1577 1577 1578 1579 1580 1580 1580 1580 1580 1581 1581 1581 1581 1580 1580 1580 1579 1579 1580 1579 1579 1579 1579 1579 1579 1579 1578 1577 1577 1576 1576 1576 1575 1575 1575 1574 1575 1575 1574 1574 1573 1572
1536 1538 1539 1541 1543 1545 1548 1550 1551 1552 1552 1552 1553 1554 1555 1557 1557 1558 1559 1560 1560 1561 1562 1562 1563 1564 1565 1566 1567 1567 1568 1571 1572 1572 1573 1573 1573 1573 1574 1574 1575 1575 1575 1575 1575 1576 1577 1578 1578 1578 1578 1578 1579 1579 1579 1579 1579 1579 1577 1577 1578 1578 1577 1577 1577 1577 1577 1577 1576 1575 1575 1574 1574 1574 1574 1574 1574 1574 1573 1573 1572 1572 1572 1572 1571
1535 1536 1538 1539 1540 1542 1545 1546 1546 1548 1549 1549 1551 1552 1553 1555 1556 1556 1557 1558 1558 1559 1560 1560 1560 1561 1562 1563 1563 1564 1565 1568 1569 1570 1571 1571 1571 1571 1572 1572 1573 1573 1574 1574 1574 1574 1575 1575 1576 1576 1576 1576 1576 1576 1577 1576 1576 1576 1575 1574 1576 1576 1575 1575 1576 1576 1575 1575 1574 1574 1573 1573 1573 1573 1573 1572 1572 1572 1571 1571 1570 1570 1570 1569 1568
1534 1535 1536 1536 1537 1540 1543 1543 1543 1544 1545 1547 1549 1550 1552 1553 1554 1555 1555 1555 1556 1556 1556 1557 1558 1558 1559 1559 1560 1561 1562 1564 1566 1567 1568 1568 1568 1569 1570 1570 1571 1572 1572 1573 1574 1574 1573 1573 1573 1574 1573 1573 1574 1573 1573 1573 1573 1573 1572 1572 1573 1574 1573 1574 1575 1575 1574 1574 1573 1573 1572 1572 1571 1571 1571 1571 1570 1570 1570 1569 1568 1568 1567 1567 1567
1532 1533 1533 1534 1536 1538 1540 1541 1541 1542 1543 1545 1547 1548 1549 1551 1552 1553 1553 1553 1553 1553 1554 1554 1555 1555 1556 1557 1557 1558 1559 1561 1563 1565 1566 1566 1566 1567 1567 1567 1568 1569 1570 1571 1572 1572 1571 1570 1571 1571 1571 1571 1571 1570 1570 1570 1570 1570 1570 1570 1570 1571 1572 1573 1573 1574 1573 1573 1573 1572 1571 1570 1570 1570 1569 1569 1568 1568 1567 1567 1567 1566 1566 1566 1566
1531 1532 1532 1534 1535 1535 1537 1539 1539 1540 1542 1544 1546 1546 1547 1549 1550 1551 1550 1550 1550 1550 1551 1551 1552 1552 1553 1554 1555 1556 1557 1559 1561 1563 1564 1564 1564 1565 1565 1565 1566 1567 1567 1568 1569 1569 1569 1569 1569 1569 1569 1568 1568 1568 1568 1568 1568 1568 1568 1567 1568 1569 1570 1571 1572 1573 1573 1573 1572 1572 1571 1570 1569 1569 1568 1568 1567 1566 1566 1565 1565 1565 1565 1564 1564
1530 1530 1531 1532 1533 1534 1535 1537 1538 1540 1541 1543 1544 1544 1545 1548 1549 1549 1548 1547 1547 1547 1548 1549 1549 1550 1551 1552 1553 1554 1556 1557 1559 1561 1562 1562 1562 1562 1562 1563 1564 1564 1564 1565 1566 1566 1567 1568 1568 1567 1567 1567 1567 1567 1567 1567 1567 1567 1567 1567 1568 1568 1569 1570 1571 1572 1573 1572 1572 1572 1571 1570 1569 1568 1567 1567 1566 1565 1565 1564 1564 1564 1563 1563 1563
1529 1529 1529 1530 1532 1534 1535 1536 1537 1539 1540 1542 1543 1544 1545 1546 1547 1546 1545 1545 1545 1546 1546 1547 1547 1548 1549 1550 1551 1553 1554 1556 1557 1559 1560 1560 1560 1560 1560 1561 1561 1561 1561 1563 1564 1565 1566 1566 1566 1566 1566 1566 1566 1566 1567 1567 1567 1567 1567 1568 1568 1568 1568 1570 1571 1572 1572 1572 1571 1571 1570 1569 1568 1567 1566 1566 1565 1565 1564 1563 1563 1563 1562 1562 1562
1528 1528 1529 1530 1532 1534 1534 1535 1536 1537 1538 1540 1541 1542 1543 1544 1544 1543 1543 1543 1543 1543 1544 1544 1545 1546 1547 1547 1548 1550 1552 1554 1555 1557 1558 1558 1558 1558 1558 1559 1559 1559 1560 1561 1562 1563 1564 1564 1564 1564 1565 1566 1567 1567 1567 1567 1567 1567 1568 1568 1569 1569 1569 1570 1571 1571 1571 1571 1570 1569 1568 1567 1567 1566 1565 1565 1564 1564 1563 1563 1563 1562 1561 1561 1560
1528 1529 1529 1530 1531 1533 1533 1533 1534 1535 1537 1538 1539 1540 1541 1541 1541 1540 1540 1541 1541 1541 1541 1543 1543 1544 1546 1547 1547 1547 1550 1552 1554 1555 1556 1556 1556 1557 1557 1557 1558 1559 1559 1559 1560 1562 1562 1562 1562 1563 1564 1566 1567 1568 1568 1568 1568 1568 1568 1569 1570 1570 1570 1570 1570 1570 1570 1570 1569 1568 1567 1567 1566 1565 1565 1564 1564 1563 1563 1563 1563 1562 1561 1560 1560
1529 1529 1530 1531 1531 1532 1533 1533 1534 1535 1536 1536 1537 1538 1539 1539 1539 1539 1539 1540 1540 1540 1541 1542 1543 1543 1546 1548 1548 1548 1549 1551 1552 1554 1554 1555 1556 1556 1556 1556 1557 1558 1559 1559 1560 1561 1562 1562 1563 1563 1564 1566 1567 1568 1568 1568 1568 1569 1570 1570 1571 1570 1570 1570 1570 1570 1570 1569 1569 1568 1567 1566 1566 1566 1565 1565 1564 1564 1563 1563 1562 1561 1560 1560 1559
1529 1530 1531 1532 1532 1533 1533 1534 1535 1535 1536 1536 1537 1538 1538 1538 1539 1539 1540 1540 1541 1542 1543 1543 1544 1545 1547 1549 1550 1550 1550 1551 1552 1553 1554 1555 1555 1556 1556 1557 1557 1557 1558 1559 1560 1561 1562 1562 1563 1564 1565 1566 1568 1569 1569 1569 1569 1570 1571 1570 1570 1570 1570 1570 1569 1569 1569 1568 1568 1567 1567 1567 1566 1566 1566 1565 1564 1563 1562 1562 1561 1560 1559 1558 1558
1531 1532 1533 1534 1534 1534 1535 1536 1536 1536 1537 1537 1537 1538 1539 1539 1540 1541 1542 1542 1543 1544 1545 1545 1546 1547 1548 1550 1551 1552 1552 1552 1553 1554 1554 1555 1555 1555 1556 1557 1557 1557 1558 1559 1560 1561 1562 1563 1564 1565 1566 1567 1569 1570 1570 1570 1570 1570 1570 1570 1570 1570 1570 1570 1569 1569 1568 1568 1568 1568 1567 1567 1567 1566 1566 1565 1563 1562 1560 1559 1559 1558 1557 1556 1556
1534 1534 1535 1535 1536 1536 1536 1537 1537 1538 1538 1538 1539 1539 1540 1542 1542 1543 1544 1544 1545 1546 1546 1547 1548 1548 1550 1551 1552 1553 1553 1553 1553 1554 1554 1554 1555 1555 1556 1557 1558 1558 1559 1560 1560 1562 1563 1564 1565 1566 1568 1569 1570 1570 1570 1570 1570 1570 1570 1570 1570 1570 1570 1570 1569 1569 1568 1568 1568 1568 1568 1567 1567 1566 1565 1564 1563 1561 1559 1558 1557 1556 1555 1555 1554
1536 1536 1536 1537 1537 1537 1538 1538 1539 1540 1539 1540 1541 1542 1543 1544 1545 1545 1546 1546 1547 1547 1548 1549 1549 1550 1551 1552 1552 1553 1553 1553 1553 1554 1554 1554 1554 1555 1556 1557 1557 1559 1559 1560 1561 1563 1564 1565 1566 1567 1568 1569 1569 1570 1570 1570 1570 1570 1570 1570 1570 1569 1569 1569 1569 1569 1569 1568 1568 1567 1567 1566 1566 1565 1564 1562 1561 1560 1559 1557 1556 1555 1554 1553 1553
1537 1537 1538 1539 1540 1540 1540 1540 1541 1542 1542 1542 1543 1544 1545 1545 1546 1546 1547 1548 1548 1549 1550 1550 1551 1552 1552 1553 1553 1553 1553 1553 1553 1553 1554 1554 1554 1555 1556 1556 1557 1559 1560 1561 1562 1564 1565 1566 1567 1567 1568 1568 1569 1569 1569 1569 1570 1570 1570 1571 1570 1569 1569 1568 1567 1567 1568 1567 1567 1566 1565 1564 1564 1563 1562 1560 1559 1558 1557 1556 1555 1554 1553 1552 1551
1539 1540 1540 1541 1541 1541 1542 1542 1543 1544 1544 1545 1545 1546 1547 1547 1547 1547 1548 1548 1549 1550 1550 1551 1552 1552 1552 1552 1552 1552 1553 1553 1553 1553 1554 1554 1555 1555 1556 1556 1557 1559 1560 1561 1563 1564 1565 1566 1567 1567 1568 1568 1568 1568 1569 1569 1569 1570 1570 1570 1570 1569 1567 1566 1565 1566 1566 1565 1565 1565 1563 1563 1562 1561 1560 1559 1558 1557 1556 1555 1554 1553 1551 1550 1549
1541 1541 1542 1542 1542 1543 1543 1544 1544 1545 1545 1546 1546 1547 1547 1548 1548 1548 1548 1549 1549 1550 1551 1551 1552 1552 1552 1552 1552 1552 1552 1552 1553 1553 1554 1554 1555 1556 1556 1557 1558 1559 1560 1562 1564 1564 1565 1566 1566 1566 1567 1567 1568 1568 1568 1568 1569 1569 1569 1569 1568 1567 1566 1565 1565 1565 1564 1564 1564 1563 1561 1561 1560 1559 1558 1558 1557 1556 1555 1554 1553 1552 1550 1549 1547
1542 1542 1542 1543 1544 1544 1544 1545 1545 1545 1545 1546 1547 1547 1548 1548 1549 1549 1549 1550 1550 1550 1551 1551 1552 1552 1552 1552 1552 1552 1553 1553 1553 1554 1554 1555 1555 1556 1556 1557 1558 1559 1560 1562 1563 1564 1565 1565 1565 1566 1566 1567 1567 1567 1568 1568 1568 1568 1568 1568 1567 1566 1565 1565 1565 1564 1563 1563 1562 1560 1559 1558 1558 1557 1556 1556 1555 1554 1553 1552 1551 1550 1548 1547 1545
1544 1544 1544 1544 1544 1545 1545 1545 1545 1545 1546 1546 1547 1547 1548 1549 1549 1550 1550 1550 1551 1551 1551 1551 1552 1552 1552 1552 1553 1553 1553 1554 1554 1555 1555 1555 1555 1556 1556 1557 1557 1558 1560 1561 1562 1563 1563 1564 1564 1565 1565 1566 1566 1566 1567 1567 1567 1567 1567 1566 1565 1565 1565 1564 1563 1562 1561 1561 1560 1558 1557 1557 1556 1555 1554 1553 1553 1552 1551 1550 1549 1548 1546 1544 1542
1546 1546 1545 1545 1545 1545 1545 1545 1546 1546 1546 1546 1547 1547 1548 1549 1549 1550 1550 1550 1551 1551 1551 1551 1552 1552 1552 1553 1553 1553 1553 1554 1554 1554 1555 1555 1555 1555 1556 1556 1557 1558 1559 1559 1560 1561 1561 1562 1563 1563 1564 1565 1565 1565 1566 1566 1565 1565 1564 1564 1563 1563 1563 1562 1561 1559 1559 1559 1558 1556 1555 1555 1554 1553 1552 1551 1551 1550 1550 1548 1547 1546 1544 1542 1541
1546 1546 1546 1546 1546 1546 1546 1546 1546 1546 1546 1547 1547 1548 1548 1548 1549 1549 1550 1550 1550 1550 1551 1551 1551 1552 1552 1552 1553 1553 1553 1553 1554 1554 1555 1555 1555 1555 1555 1555 1556 1557 1557 1557 1558 1559 1559 1560 1561 1561 1562 1563 1563 1563 1563 1563 1564 1564 1563 1562 1562 1561 1560 1559 1558 1557 1557 1557 1556 1555 1554 1554 1553 1552 1551 1550 1549 1549 1548 1546 1545 1544 1543 1542 1541
1546 1546 1546 1546 1546 1546 1547 1547 1546 1547 1547 1547 1548 1548 1548 1549 1549 1549 1549 1549 1549 1550 1550 1550 1551 1552 1552 1552 1552 1552 1553 1553 1554 1554 1554 1554 1554 1555 1555 1555 1555 1555 1555 1556 1556 1557 1557 1558 1558 1559 1559 1560 1560 1560 1561 1561 1561 1562 1561 1561 1561 1560 1558 1558 1557 1556 1555 1555 1555 1554 1553 1552 1551 1550 1549 1549 1548 1547 1545 1544 1543 1543 1542 1541 1540
1547 1547 1547 1546 1547 1547 1547 1547 1547 1547 1548 1548 1548 1548 1548 1549 1549 1549 1549 1549 1549 1550 1550 1550 1550 1551 1551 1551 1551 1552 1552 1553 1553 1554 1554 1554 1554 1554 1554 1554 1554 1554 1555 1555 1555 1556 1556 1557 1557 1557 1558 1558 1558 1558 1559 1559 1559 1559 1558 1558 1559 1558 1557 1557 1556 1555 1554 1554 1553 1552 1552 1551 1550 1549 1548 1547 1546 1544 1543 1543 1542 1541 1540 1539 1538
1547 1547 1546 1546 1547 1547 1547 1548 1548 1548 1548 1548 1548 1548 1549 1549 1549 1549 1549 1550 1549 1550 1550 1549 1550 1550 1550 1550 1550 1551 1552 1553 1553 1553 1553 1554 1554 1554 1554 1554 1554 1554 1554 1554 1555 1555 1556 1556 1556 1557 1557 1557 1557 1557 1557 1557 1557 1557 1557 1557 1556 1556 1556 1555 1554 1553 1552 1552 1552 1551 1551 1550 1549 1547 1546 1545 1544 1543 1542 1542 1541 1540 1539 1538 1536
1546 1546 1546 1546 1546 1546 1547 1548 1548 1547 1547 1547 1548 1548 1548 1548 1548 1548 1548 1548 1549 1549 1549 1549 1549 1549 1549 1548 1549 1549 1550 1552 1553 1553 1553 1553 1554 1553 1553 1553 1553 1553 1554 1554 1554 1555 1555 1555 1555 1555 1555 1555 1555 1555 1556 1556 1556 1556 1556 1555 1555 1554 1554 1553 1552 1551 1550 1550 1550 1550 1548 1547 1546 1545 1544 1544 1542 1542 1541 1540 1539 1538 1537 1536 1535
1545 1545 1545 1545 1545 1545 1546 1546 1546 1546 1546 1546 1546 1547 1547 1547 1547 1547 1547 1547 1547 1547 1548 1548 1548 1548 1547 1547 1547 1548 1548 1549 1551 1552 1552 1553 1553 1553 1553 1553 1552 1552 1553 1553 1553 1553 1553 1554 1554 1554 1554 1554 1554 1554 1554 1554 1554 1554 1554 1554 1553 1552 1552 1552 1551 1550 1549 1549 1549 1548 1546 1545 1544 1543 1543 1542 1541 1540 1540 1539 1538 1537 1536 1535 1534
1544 1545 1545 1545 1545 1544 1545 1544 1544 1545 1544 1544 1544 1545 1545 1545 1545 1545 1545 1546 1546 1546 1546 1546 1547 1546 1545 1545 1545 1546 1546 1547 1548 1549 1550 1551 1551 1551 1552 1552 1552 1551 1551 1551 1551 1552 1552 1553 1553 1552 1552 1552 1552 1552 1552 1552 1551 1551 1552 1551 1551 1550 1549 1549 1549 1549 1548 1548 1547 1546 1545 1544 1543 1542 1541 1540 1540 1539 1539 1538 1537 1536 1535 1534 1533
1544 1544 1544 1544 1544 1544 1544 1543 1543 1543 1543 1543 1543 1543 1543 1543 1543 1543 1543 1543 1544 1544 1544 1545 1545 1545 1544 1544 1544 1544 1544 1545 1546 1547 1547 1548 1548 1549 1550 1550 1550 1549 1549 1549 1549 1549 1550 1551 1550 1550 1550 1550 1550 1549 1549 1549 1548 1548 1549 1549 1549 1548 1548 1547 1547 1546 1545 1545 1544 1544 1543 1543 1542 1541 1540 1539 1539 1538 1537 1536 1535 1534 1533 1532 1531
1542 1542 1542 1543 1543 1543 1542 1542 1542 1542 1542 1542 1542 1542 1541 1541 1541 1541 1541 1541 1541 1542 1542 1543 1543 1543 1543 1543 1543 1543 1543 1543 1544 1544 1545 1545 1546 1546 1547 1547 1548 1547 1547 1547 1547 1547 1548 1548 1548 1548 1548 1548 1548 1547 1547 1546 1545 1545 1545 1545 1546 1546 1545 1544 1543 1542 1542 1542 1542 1541 1541 1541 1540 1539 1538 1537 1537 1536 1535 1534 1533 1533 1532 1531 1530
1540 1541 1541 1541 1541 1541 1541 1540 1540 1540 1540 1540 1540 1540 1540 1540 1540 1539 1539 1539 1539 1539 1539 1540 1540 1541 1541 1542 1542 1541 1541 1542 1542 1542 1542 1542 1543 1544 1544 1544 1545 1545 1545 1545 1545 1546 1546 1546 1546 1546 1546 1546 1545 1545 1545 1544 1544 1543 1543 1543 1543 1542 1542 1541 1540 1539 1540 1540 1539 1539 1538 1538 1538 1537 1537 1536 1535 1535 1534 1533 1533 1532 1531 1530 1528
1540 1540 1539 1539 1539 1539 1539 1539 1539 1538 1538 1538 1538 1538 1538 1538 1538 1538 1537 1537 1537 1537 1537 1537 1537 1538 1538 1539 1539 1539 1540 1540 1540 1540 1539 1539 1539 1540 1541 1541 1541 1542 1542 1543 1543 1544 1544 1544 1544 1543 1543 1543 1542 1542 1542 1542 1541 1542 1542 1541 1539 1538 1538 1538 1537 1537 1537 1537 1536 1536 1536 1536 1536 1536 1535 1535 1535 1534 1533 1532 1531 1531 1530 1528 1527
1538 1538 1538 1538 1537 1537 1537 1537 1537 1537 1537 1537 1536 1536 1536 1536 1536 1536 1535 1535 1535 1535 1535 1535 1535 1535 1535 1536 1536 1536 1537 1537 1537 1538 1537 1536 1536 1537 1538 1538 1539 1539 1539 1540 1540 1541 1541 1541 1542 1541 1541 1540 1540 1540 1540 1540 1540 1541 1541 1539 1536 1535 1536 1535 1535 1534 1534 1534 1535 1535 1535 1535 1535 1535 1534 1534 1534 1533 1532 1531 1530 1529 1528 1527 1526
1537 1536 1536 1536 1536 1535 1535 1535 1535 1535 1535 1534 1534 1534 1534 1534 1534 1533 1533 1533 1533 1533 1532 1532 1532 1532 1532 1533 1533 1533 1534 1534 1535 1535 1535 1534 1534 1534 1535 1535 1536 1536 1536 1537 1538 1538 1539 1539 1539 1539 1539 1539 1540 1540 1540 1540 1540 1540 1538 1536 1534 1533 1534 1533 1532 1532 1532 1533 1534 1535 1535 1534 1534 1534 1533 1533 1532 1532 1531 1530 1529 1528 1527 1525 1524
1535 1535 1534 1534 1534 1534 1533 1533 1533 1533 1533 1532 1532 1532 1532 1532 1531 1531 1531 1531 1531 1531 1531 1530 1530 1530 1530 1530 1530 1530 1531 1531 1531 1531 1531 1531 1531 1531 1532 1532 1533 1533 1534 1535 1535 1536 1537 1537 1537 1537 1538 1539 1539 1539 1539 1539 1537 1536 1535 1533 1533 1532 1532 1531 1531 1531 1530 1530 1531 1533 1534 1534 1533 1533 1532 1532 1531 1531 1530 1529 1527 1526 1524 1523 1521